QPF
0.00 0.00 0.00 0.00 0.00 0.00 0.00 0.00 0.00 0.00 0.00 0.00 0.00 0.00 0.00 0.00 0.00 0.00 0.00 0.00 0.00 0.00 0.00 0.00 0.00 0.00 0.00 0.00 0.00 0.00 0.00 0.00 0.00 0.00 0.00 0.00 0.00 0.00 0.00 0.01 0.03 0.03 0.01 0.01
0.00 0.00 0.00 0.00 0.00 0.00 0.00 0.00 0.00 0.00 0.00 0.00 0.00 0.00 0.00 0.00 0.00 0.00 0.00 0.00 0.00 0.02 0.02 0.00 0.00 0.00 0.00 0.00 0.00 0.00 0.00 0.01 0.01 0.02 0.02 0.00 0.00 0.00 0.01 0.04 0.01 0.00 0.00 0.00
0.00 0.00 0.00 0.00 0.00 0.00 0.00 0.00 0.00 0.00 0.00 0.00 0.00 0.00 0.00 0.00 0.00 0.00 0.00 0.00 0.01 0.02 0.02 0.01 0.01 0.03 0.05 0.04 0.03 0.04 0.03 0.03 0.04 0.03 0.03 0.01 0.00 0.01 0.00 0.00 0.00 0.00 0.00 0.00
0.01 0.00 0.00 0.00 0.00 0.00 0.00 0.00 0.00 0.00 0.00 0.00 0.00 0.00 0.00 0.00 0.00 0.00 0.00 0.01 0.01 0.02 0.03 0.02 0.03 0.05 0.06 0.06 0.05 0.05 0.04 0.03 0.02 0.02 0.01 0.00 0.00 0.00 0.00 0.00 0.00 0.00 0.00 0.00
0.01 0.01 0.01 0.01 0.00 0.00 0.00 0.00 0.00 0.00 0.00 0.00 0.00 0.00 0.00 0.00 0.00 0.00 0.00 0.00 0.00 0.01 0.01 0.01 0.02 0.02 0.02 0.02 0.02 0.01 0.01 0.01 0.01 0.01 0.00 0.00 0.00 0.00 0.00 0.00 0.00 0.00 0.00 0.00
0.00 0.00 0.00 0.00 0.00 0.00 0.00 0.00 0.00 0.00 0.00 0.00 0.00 0.00 0.00 0.00 0.00 0.00 0.00 0.00 0.00 0.00 0.00 0.00 0.00 0.00 0.00 0.00 0.00 0.00 0.00 0.00 0.00 0.00 0.00 0.00 0.00 0.00 0.00 0.00 0.00 0.00 0.00 0.00
0.00 0.00 0.00 0.00 0.00 0.00 0.00 0.00 0.00 0.00 0.00 0.00 0.00 0.00 0.00 0.00 0.00 0.00 0.00 0.00 0.00 0.00 0.00 0.00 0.00 0.00 0.00 0.00 0.00 0.00 0.00 0.00 0.00 0.00 0.00 0.00 0.00 0.00 0.00 0.00 0.00 0.00 0.00 0.00
0.00 0.00 0.00 0.00 0.00 0.00 0.00 0.00 0.00 0.00 0.00 0.00 0.00 0.00 0.00 0.00 0.00 0.00 0.00 0.00 0.00 0.00 0.00 0.00 0.00 0.00 0.00 0.00 0.00 0.00 0.00 0.00 0.00 0.00 0.00 0.00 0.00 0.00 0.00 0.00 0.00 0.00 0.00 0.00
0.00 0.00 0.00 0.00 0.00 0.00 0.00 0.00 0.00 0.00 0.00 0.00 0.00 0.00 0.00 0.00 0.00 0.00 0.00 0.00 0.00 0.00 0.00 0.00 0.00 0.00 0.00 0.00 0.00 0.00 0.00 0.00 0.00 0.00 0.00 0.00 0.00 0.00 0.00 0.00 0.00 0.00 0.00 0.00
0.00 0.00 0.00 0.00 0.00 0.00 0.00 0.00 0.00 0.00 0.00 0.00 0.00 0.00 0.00 0.00 0.00 0.00 0.00 0.00 0.00 0.00 0.00 0.00 0.00 0.00 0.00 0.00 0.00 0.00 0.00 0.00 0.00 0.00 0.00 0.00 0.00 0.00 0.00 0.00 0.00 0.00 0.00 0.00
0.00 0.00 0.00 0.00 0.00 0.00 0.00 0.00 0.00 0.00 0.00 0.00 0.00 0.00 0.00 0.00 0.00 0.00 0.00 0.00 0.00 0.00 0.00 0.00 0.00 0.00 0.00 0.00 0.00 0.00 0.00 0.00 0.00 0.00 0.00 0.00 0.00 0.00 0.00 0.00 0.00 0.00 0.00 0.00
0.00 0.00 0.00 0.00 0.00 0.00 0.00 0.00 0.00 0.00 0.00 0.00 0.00 0.00 0.00 0.00 0.00 0.00 0.00 0.00 0.00 0.00 0.00 0.00 0.00 0.00 0.00 0.00 0.00 0.00 0.00 0.00 0.00 0.00 0.00 0.00 0.00 0.00 0.00 0.00 0.00 0.00 0.00 0.00
0.00 0.00 0.00 0.00 0.00 0.00 0.00 0.00 0.00 0.00 0.00 0.00 0.00 0.00 0.00 0.00 0.00 0.00 0.00 0.00 0.00 0.00 0.00 0.00 0.00 0.00 0.00 0.00 0.00 0.00 0.00 0.00 0.00 0.00 0.00 0.00 0.00 0.00 0.00 0.00 0.00 0.00 0.00 0.00
0.00 0.00 0.00 0.00 0.00 0.00 0.00 0.00 0.00 0.00 0.00 0.00 0.00 0.00 0.00 0.00 0.00 0.00 0.00 0.00 0.00 0.00 0.00 0.00 0.00 0.00 0.00 0.00 0.00 0.00 0.00 0.00 0.00 0.00 0.00 0.00 0.00 0.00 0.00 0.00 0.00 0.00 0.00 0.00
0.00 0.00 0.00 0.00 0.00 0.00 0.00 0.00 0.00 0.00 0.00 0.00 0.00 0.00 0.00 0.00 0.00 0.00 0.00 0.00 0.00 0.00 0.00 0.00 0.00 0.00 0.00 0.00 0.00 0.00 0.00 0.00 0.00 0.00 0.00 0.00 0.00 0.00 0.00 0.00 0.00 0.00 0.00 0.00
0.00 0.00 0.00 0.00 0.00 0.00 0.00 0.00 0.00 0.00 0.00 0.00 0.00 0.00 0.00 0.00 0.00 0.00 0.00 0.00 0.00 0.00 0.00 0.00 0.00 0.00 0.00 0.00 0.00 0.00 0.00 0.00 0.00 0.00 0.00 0.00 0.00 0.00 0.00 0.00 0.00 0.00 0.00 0.00
0.00 0.00 0.00 0.00 0.00 0.00 0.00 0.00 0.00 0.00 0.00 0.00 0.00 0.00 0.00 0.00 0.00 0.00 0.00 0.00 0.00 0.00 0.00 0.00 0.00 0.00 0.00 0.00 0.00 0.00 0.00 0.00 0.00 0.00 0.00 0.00 0.00 0.00 0.00 0.00 0.00 0.00 0.00 0.00
0.00 0.00 0.00 0.00 0.00 0.00 0.00 0.00 0.00 0.00 0.00 0.00 0.00 0.00 0.00 0.00 0.00 0.00 0.00 0.00 0.00 0.00 0.00 0.00 0.00 0.00 0.00 0.00 0.00 0.00 0.00 0.00 0.00 0.00 0.00 0.00 0.00 0.00 0.00 0.00 0.00 0.00 0.00 0.00
0.00 0.00 0.00 0.00 0.00 0.00 0.00 0.00 0.00 0.00 0.00 0.00 0.00 0.00 0.00 0.00 0.00 0.00 0.00 0.00 0.00 0.00 0.00 0.00 0.00 0.00 0.00 0.00 0.00 0.00 0.00 0.00 0.00 0.00 0.00 0.00 0.00 0.00 0.00 0.00 0.00 0.00 0.00 0.00
0.00 0.00 0.00 0.00 0.00 0.00 0.00 0.00 0.00 0.00 0.00 0.00 0.00 0.00 0.00 0.00 0.00 0.00 0.00 0.00 0.00 0.00 0.00 0.00 0.00 0.00 0.00 0.00 0.00 0.00 0.00 0.00 0.00 0.00 0.00 0.00 0.00 0.00 0.00 0.00 0.00 0.00 0.00 0.00
0.00 0.00 0.00 0.00 0.00 0.00 0.00 0.00 0.00 0.00 0.00 0.00 0.00 0.00 0.00 0.00 0.00 0.00 0.00 0.00 0.00 0.00 0.00 0.00 0.00 0.00 0.00 0.00 0.00 0.00 0.00 0.00 0.00 0.00 0.00 0.00 0.00 0.00 0.00 0.00 0.00 0.00 0.00 0.00
0.00 0.00 0.00 0.00 0.00 0.00 0.00 0.00 0.00 0.00 0.00 0.00 0.00 0.00 0.00 0.00 0.00 0.00 0.00 0.00 0.00 0.00 0.00 0.00 0.00 0.00 0.00 0.00 0.00 0.00 0.00 0.00 0.00 0.00 0.00 0.00 0.00 0.00 0.00 0.00 0.00 0.00 0.00 0.00
0.00 0.00 0.00 0.00 0.00 0.00 0.00 0.00 0.00 0.00 0.00 0.00 0.00 0.00 0.00 0.00 0.00 0.00 0.00 0.00 0.00 0.00 0.00 0.00 0.00 0.00 0.00 0.00 0.00 0.00 0.00 0.00 0.00 0.00 0.00 0.00 0.00 0.00 0.00 0.00 0.00 0.00 0.00 0.00
0.00 0.00 0.00 0.00 0.00 0.00 0.00 0.00 0.00 0.00 0.00 0.00 0.00 0.00 0.00 0.00 0.00 0.00 0.00 0.00 0.00 0.00 0.00 0.00 0.00 0.00 0.00 0.00 0.00 0.00 0.00 0.00 0.00 0.00 0.00 0.00 0.00 0.00 0.00 0.00 0.00 0.00 0.00 0.00
0.00 0.00 0.00 0.00 0.00 0.00 0.00 0.00 0.00 0.00 0.00 0.00 0.00 0.00 0.00 0.00 0.00 0.00 0.00 0.00 0.00 0.00 0.00 0.00 0.00 0.00 0.00 0.00 0.00 0.00 0.00 0.00 0.00 0.00 0.00 0.00 0.00 0.00 0.00 0.00 0.00 0.00 0.00 0.00
0.00 0.00 0.00 0.00 0.00 0.00 0.00 0.00 0.00 0.00 0.00 0.00 0.00 0.00 0.00 0.00 0.00 0.00 0.00 0.00 0.00 0.00 0.00 0.00 0.00 0.00 0.00 0.00 0.00 0.00 0.00 0.00 0.00 0.00 0.00 0.00 0.00 0.00 0.00 0.00 0.00 0.00 0.00 0.00
MSLP
1018.42 1018.37 1017.81 1018.00 1017.88 1017.98 1018.11 1018.16 1018.44 1018.54 1018.63 1018.59 1018.40 1018.39 1018.14 1018.03 1018.34 1018.57 1018.79 1018.77 1018.76 1018.88 1019.07 1019.19 1019.47 1019.75 1020.20 1020.28 1020.53 1020.63 1020.75 1020.86 1021.35 1021.60 1021.73 1021.82 1021.88 1021.97 1022.02 1021.99 1022.08 1022.22 1022.34 1022.15
1018.73 1017.97 1017.90 1017.99 1018.04 1018.28 1018.46 1018.57 1018.66 1019.26 1019.10 1018.81 1018.94 1018.58 1018.16 1018.21 1018.26 1018.47 1018.65 1018.98 1018.90 1019.27 1019.61 1019.98 1020.20 1020.31 1020.66 1021.02 1020.95 1020.96 1021.04 1021.26 1021.54 1021.71 1021.71 1021.70 1021.83 1021.96 1022.01 1022.28 1022.29 1022.43 1022.42 1022.39
1018.50 1017.99 1017.81 1017.93 1018.26 1018.63 1018.47 1018.58 1018.74 1018.99 1019.29 1019.50 1019.18 1018.95 1018.75 1018.31 1018.28 1018.47 1018.93 1019.17 1019.34 1019.67 1020.39 1021.02 1021.17 1021.49 1021.59 1021.76 1021.91 1021.80 1021.78 1021.86 1021.93 1021.85 1021.90 1021.92 1021.90 1021.98 1022.40 1022.61 1022.77 1022.84 1022.86 1022.74
1018.66 1018.11 1017.91 1017.91 1018.11 1018.46 1018.71 1018.61 1018.95 1019.26 1019.51 1019.87 1019.35 1019.25 1018.89 1018.70 1018.95 1019.35 1019.96 1020.18 1020.73 1020.68 1021.08 1021.58 1021.85 1022.15 1022.44 1022.65 1022.63 1022.67 1022.54 1022.56 1022.66 1022.59 1022.56 1022.74 1022.87 1023.24 1023.55 1023.64 1023.70 1023.40 1023.06 1022.86
1018.38 1018.11 1018.21 1017.88 1017.87 1018.43 1018.82 1019.08 1019.24 1019.75 1019.83 1020.05 1020.13 1020.04 1018.81 1018.86 1019.59 1019.92 1020.28 1021.27 1021.61 1021.95 1021.74 1022.30 1022.58 1022.70 1022.89 1023.07 1023.10 1023.34 1023.23 1023.03 1023.21 1023.44 1023.43 1023.56 1023.87 1024.18 1024.06 1023.94 1023.94 1023.87 1023.53 1023.23
1018.74 1018.31 1018.24 1018.13 1018.22 1018.24 1019.08 1019.80 1020.15 1020.61 1020.64 1020.61 1019.87 1019.83 1018.99 1018.94 1019.01 1020.05 1021.04 1021.83 1022.36 1022.99 1022.38 1022.73 1023.31 1023.53 1023.29 1023.82 1023.29 1023.88 1023.53 1023.99 1024.27 1023.85 1024.13 1024.39 1024.69 1024.77 1024.54 1024.35 1024.29 1024.19 1023.97 1023.57
1019.24 1019.11 1018.85 1018.71 1018.72 1018.93 1018.89 1019.86 1020.89 1021.51 1021.47 1020.89 1020.45 1020.43 1018.82 1018.78 1018.85 1019.56 1020.92 1021.97 1022.52 1023.76 1024.01 1023.34 1023.67 1024.38 1024.27 1023.94 1023.92 1024.48 1024.60 1024.98 1024.91 1025.00 1024.84 1024.88 1025.11 1024.97 1024.90 1024.97 1024.91 1024.56 1024.21 1024.07
1019.61 1019.83 1019.11 1018.76 1018.59 1018.40 1019.00 1019.58 1020.54 1021.08 1021.66 1021.51 1021.04 1020.08 1018.95 1018.67 1019.12 1019.55 1020.82 1022.37 1023.04 1024.00 1024.02 1024.37 1024.27 1024.99 1025.47 1024.82 1024.59 1024.98 1026.01 1025.72 1025.55 1025.35 1025.63 1025.36 1025.56 1025.52 1025.46 1025.41 1025.28 1025.07 1024.83 1024.26
1019.87 1019.73 1019.49 1019.48 1018.88 1018.61 1019.69 1019.99 1021.04 1021.34 1022.23 1021.85 1020.97 1020.12 1019.34 1019.29 1019.85 1020.44 1021.34 1022.18 1023.23 1023.72 1024.10 1024.50 1025.14 1024.67 1025.93 1024.94 1025.36 1025.75 1026.27 1025.60 1026.10 1026.71 1026.71 1026.66 1026.44 1026.31 1026.15 1025.84 1025.75 1025.68 1025.19 1024.56
1020.01 1020.31 1020.14 1019.72 1019.53 1019.69 1019.46 1020.16 1021.36 1021.52 1022.07 1021.95 1021.28 1020.72 1019.80 1019.88 1020.16 1020.98 1021.69 1022.51 1023.64 1024.44 1025.42 1025.94 1026.21 1026.99 1027.00 1027.30 1027.18 1027.29 1027.06 1027.64 1027.60 1027.43 1027.26 1026.97 1026.87 1026.75 1026.33 1026.10 1026.36 1025.98 1025.59 1025.30
1020.09 1020.12 1020.88 1020.38 1019.99 1019.97 1020.28 1020.23 1020.92 1021.16 1021.39 1021.23 1021.28 1020.36 1019.92 1019.70 1020.38 1020.88 1021.80 1022.92 1024.30 1025.17 1025.93 1026.95 1027.30 1027.83 1028.11 1027.61 1027.44 1027.36 1027.36 1027.69 1027.85 1027.91 1027.53 1027.29 1027.20 1027.05 1026.73 1026.67 1026.89 1026.50 1026.26 1026.04
1020.08 1020.40 1020.69 1020.78 1020.63 1020.24 1019.99 1019.90 1019.98 1020.51 1021.24 1021.11 1020.86 1020.73 1020.42 1020.32 1020.86 1021.56 1022.64 1023.83 1024.93 1025.70 1026.57 1027.10 1027.44 1027.91 1027.85 1028.29 1028.45 1028.46 1028.21 1028.25 1028.38 1028.33 1028.10 1027.98 1027.82 1027.91 1027.74 1027.55 1027.58 1027.25 1026.74 1025.97
1020.08 1020.61 1021.24 1021.44 1021.16 1020.52 1020.18 1019.79 1019.91 1019.92 1020.08 1020.74 1021.22 1021.32 1021.20 1021.25 1021.72 1022.79 1023.21 1024.69 1025.78 1026.58 1027.17 1027.59 1027.87 1028.05 1028.41 1028.84 1029.06 1028.98 1028.81 1028.71 1028.87 1028.84 1029.00 1029.10 1029.18 1028.92 1029.07 1028.74 1027.92 1027.25 1026.52 1025.98
1020.08 1021.01 1021.15 1021.19 1020.90 1020.55 1020.48 1019.99 1019.56 1019.57 1020.31 1020.55 1020.99 1021.48 1022.08 1022.25 1022.51 1023.59 1024.42 1025.38 1026.08 1026.56 1027.18 1027.84 1028.35 1028.75 1029.15 1029.56 1029.62 1029.58 1029.38 1029.76 1030.08 1030.04 1030.09 1030.09 1029.79 1029.46 1029.11 1029.06 1028.49 1027.56 1027.04 1026.61
1020.83 1021.70 1021.82 1021.71 1021.34 1021.00 1020.76 1020.24 1019.71 1019.76 1020.04 1020.48 1020.90 1021.32 1021.97 1022.31 1022.68 1023.73 1024.62 1025.51 1026.31 1027.04 1027.76 1028.38 1028.88 1029.50 1029.89 1030.20 1030.56 1030.58 1030.75 1030.77 1030.65 1030.71 1030.65 1030.57 1030.00 1029.67 1029.47 1029.26 1028.71 1028.05 1027.42 1026.80
1021.62 1022.29 1022.41 1022.43 1021.79 1021.52 1021.29 1020.67 1020.52 1020.38 1020.57 1020.71 1020.67 1021.20 1021.70 1022.70 1023.48 1024.49 1025.15 1025.77 1026.64 1027.46 1028.21 1028.83 1029.28 1029.80 1030.57 1031.03 1031.50 1031.71 1031.14 1031.21 1031.05 1031.29 1030.88 1030.62 1030.18 1030.04 1029.75 1029.39 1028.99 1028.54 1027.61 1026.71
1022.26 1022.74 1023.21 1023.35 1022.61 1022.19 1021.56 1020.03 1019.94 1020.00 1020.15 1020.37 1020.89 1020.89 1021.81 1023.19 1024.08 1024.68 1025.36 1025.92 1026.77 1027.73 1028.45 1028.94 1029.72 1030.55 1031.03 1031.61 1032.02 1031.98 1031.58 1031.41 1031.20 1031.17 1031.16 1030.83 1030.75 1030.57 1030.23 1029.57 1028.85 1028.00 1026.98 1026.08
1022.79 1023.21 1023.79 1024.07 1023.20 1022.33 1020.50 1019.86 1019.63 1019.59 1019.79 1019.92 1020.52 1020.85 1021.57 1022.74 1023.98 1024.95 1025.67 1026.27 1027.28 1027.99 1028.85 1029.81 1030.54 1031.17 1031.72 1032.31 1032.34 1032.02 1031.65 1031.24 1031.30 1031.31 1031.85 1031.22 1031.23 1030.78 1030.05 1029.55 1028.65 1027.99 1026.99 1026.52
1023.51 1023.74 1024.92 1025.14 1024.27 1022.50 1020.77 1020.00 1019.66 1019.51 1020.02 1019.86 1020.31 1021.46 1022.27 1023.52 1024.61 1025.81 1026.19 1026.54 1027.21 1028.31 1029.31 1030.55 1031.45 1031.67 1031.99 1032.29 1032.31 1031.57 1031.72 1031.72 1031.88 1032.05 1032.07 1031.66 1031.59 1030.94 1030.10 1029.32 1028.88 1028.48 1027.87 1027.13
1024.75 1024.68 1025.04 1026.03 1025.36 1023.32 1020.93 1019.88 1019.64 1019.64 1019.90 1019.98 1020.52 1021.42 1022.48 1023.98 1025.45 1025.87 1026.69 1027.33 1028.46 1029.43 1030.55 1031.50 1031.56 1031.91 1032.27 1032.25 1032.04 1032.04 1032.30 1032.39 1032.44 1032.43 1032.17 1031.82 1031.67 1031.25 1030.52 1030.31 1029.85 1028.97 1028.17 1027.79
1026.67 1026.51 1026.71 1026.54 1025.27 1022.78 1021.00 1020.45 1020.41 1020.87 1020.77 1019.93 1020.58 1021.60 1022.96 1024.16 1025.02 1025.67 1026.99 1028.28 1029.28 1030.28 1031.12 1031.62 1031.83 1031.88 1032.18 1032.56 1032.43 1032.34 1032.59 1033.07 1033.19 1032.75 1032.37 1032.23 1032.39 1031.80 1031.89 1030.91 1029.73 1029.21 1028.91 1028.29
1026.83 1026.77 1027.20 1026.91 1025.51 1023.35 1021.49 1021.22 1021.28 1021.11 1020.78 1020.89 1021.62 1022.71 1024.01 1025.01 1025.91 1026.84 1027.84 1028.84 1029.72 1030.47 1031.15 1031.60 1031.85 1032.26 1032.67 1032.93 1032.79 1033.11 1033.35 1033.63 1033.39 1033.09 1033.37 1033.51 1033.00 1032.65 1031.62 1030.63 1030.00 1029.55 1029.09 1028.47
1026.78 1025.59 1025.61 1025.53 1023.70 1022.36 1021.82 1021.52 1021.20 1021.40 1021.60 1022.01 1022.48 1023.53 1024.47 1025.74 1026.67 1027.57 1028.56 1029.39 1030.05 1030.57 1031.09 1031.77 1032.31 1032.65 1033.19 1033.51 1033.59 1033.77 1034.13 1033.92 1034.26 1034.56 1034.50 1033.73 1032.79 1032.19 1031.74 1031.09 1030.51 1030.11 1029.54 1028.71
1025.91 1025.25 1025.25 1024.75 1023.21 1022.61 1022.04 1021.62 1021.57 1021.57 1022.01 1022.49 1023.14 1023.91 1024.81 1025.89 1026.95 1027.93 1028.86 1029.65 1030.33 1030.96 1031.66 1032.49 1033.09 1033.76 1034.06 1034.44 1034.46 1034.64 1034.71 1035.01 1035.14 1034.82 1034.09 1033.44 1032.99 1032.35 1031.79 1031.51 1031.17 1030.54 1029.77 1028.92
1025.68 1025.30 1024.82 1024.15 1022.96 1022.70 1022.16 1021.98 1022.03 1022.34 1022.78 1023.33 1024.14 1024.81 1025.63 1026.53 1027.61 1028.41 1029.49 1030.35 1031.05 1031.79 1032.81 1033.47 1033.90 1034.17 1034.59 1034.63 1034.75 1035.16 1035.37 1035.50 1035.41 1034.87 1034.30 1033.77 1033.23 1032.92 1032.48 1031.89 1031.31 1030.49 1029.94 1029.25
1024.50 1023.68 1023.69 1022.86 1021.83 1021.79 1021.78 1021.99 1022.53 1023.24 1023.78 1024.32 1025.02 1026.15 1026.88 1027.44 1028.48 1029.28 1030.20 1031.00 1031.79 1032.66 1033.43 1033.86 1033.85 1034.10 1034.70 1035.24 1035.70 1036.12 1036.37 1036.24 1035.88 1035.10 1034.38 1033.98 1033.66 1033.32 1032.84 1032.07 1030.78 1030.18 1029.59 1028.90
Thickness
5575 5583 5594 5599 5610 5608 5614 5618 5620 5622 5626 5632 5632 5637 5647 5655 5659 5662 5666 5672 5677 5679 5678 5680 5679 5680 5676 5678 5677 5676 5676 5674 5668 5666 5664 5663 5662 5661 5659 5658 5655 5653 5651 5651
5567 5579 5590 5596 5600 5601 5604 5606 5614 5606 5617 5623 5621 5631 5642 5647 5653 5656 5660 5662 5668 5669 5667 5664 5667 5669 5666 5664 5668 5668 5667 5665 5662 5660 5659 5659 5657 5654 5653 5648 5646 5643 5643 5642
5562 5575 5585 5587 5587 5589 5597 5600 5604 5610 5608 5610 5616 5622 5627 5640 5649 5651 5649 5654 5658 5660 5652 5649 5651 5651 5651 5651 5651 5654 5654 5653 5652 5653 5650 5650 5650 5648 5642 5638 5635 5633 5632 5631
5554 5567 5575 5580 5584 5588 5587 5598 5600 5598 5604 5600 5612 5604 5617 5626 5629 5630 5632 5634 5636 5640 5640 5638 5639 5639 5639 5637 5638 5639 5640 5640 5639 5640 5639 5637 5635 5631 5627 5624 5622 5622 5622 5623
5552 5557 5563 5572 5583 5585 5584 5589 5592 5591 5592 5594 5593 5595 5612 5618 5614 5617 5622 5620 5620 5621 5628 5626 5625 5627 5626 5625 5626 5625 5626 5629 5627 5625 5624 5622 5618 5615 5614 5614 5612 5611 5611 5610
5540 5551 5559 5568 5573 5579 5573 5572 5572 5570 5575 5580 5593 5601 5601 5609 5613 5610 5608 5605 5606 5605 5614 5614 5612 5612 5615 5610 5615 5612 5615 5612 5610 5613 5609 5606 5604 5602 5602 5602 5600 5598 5596 5596
5529 5538 5546 5552 5558 5563 5570 5570 5559 5561 5563 5577 5575 5582 5603 5608 5616 5612 5604 5599 5599 5590 5594 5602 5602 5597 5598 5601 5601 5598 5596 5594 5594 5593 5594 5593 5591 5590 5589 5586 5583 5584 5583 5580
5527 5531 5539 5548 5557 5565 5565 5570 5563 5562 5561 5564 5557 5582 5594 5603 5606 5607 5598 5588 5587 5584 5586 5583 5585 5580 5578 5584 5587 5584 5574 5576 5578 5580 5577 5578 5576 5575 5573 5571 5568 5567 5566 5567
5514 5527 5527 5535 5546 5559 5548 5555 5545 5546 5511 5548 5564 5577 5590 5590 5587 5590 5585 5584 5578 5577 5575 5573 5567 5573 5562 5572 5568 5565 5559 5564 5562 5557 5555 5553 5556 5555 5554 5554 5551 5548 5548 5549
5501 5520 5511 5525 5534 5537 5546 5545 5537 5529 5539 5546 5554 5563 5577 5580 5579 5581 5580 5575 5567 5561 5554 5551 5551 5544 5545 5544 5545 5543 5545 5541 5540 5540 5542 5542 5541 5539 5539 5539 5534 5534 5533 5531
5495 5508 5504 5509 5518 5532 5527 5533 5527 5538 5537 5542 5544 5566 5575 5580 5576 5579 5574 5564 5553 5547 5543 5535 5533 5530 5528 5533 5534 5534 5534 5530 5527 5525 5528 5528 5527 5525 5525 5522 5517 5517 5515 5514
5492 5494 5500 5505 5506 5517 5527 5534 5540 5536 5527 5539 5553 5558 5555 5568 5565 5567 5557 5548 5540 5536 5530 5527 5524 5519 5519 5516 5515 5515 5517 5516 5514 5513 5513 5512 5511 5507 5506 5505 5502 5502 5503 5505
5486 5485 5483 5498 5506 5513 5520 5533 5536 5538 5539 5534 5539 5547 5542 5546 5545 5541 5540 5530 5523 5517 5512 5511 5510 5510 5508 5504 5502 5503 5503 5504 5501 5499 5497 5494 5491 5490 5487 5487 5490 5493 5495 5492
5485 5462 5486 5495 5508 5505 5508 5526 5534 5538 5524 5531 5536 5531 5528 5526 5529 5525 5518 5513 5511 5509 5506 5500 5497 5494 5490 5486 5486 5486 5487 5483 5480 5479 5477 5476 5476 5476 5477 5474 5474 5476 5472 5469
5472 5446 5467 5477 5482 5495 5511 5520 5527 5527 5530 5530 5535 5537 5528 5524 5525 5519 5511 5505 5502 5497 5492 5488 5484 5478 5474 5473 5470 5470 5467 5467 5467 5466 5465 5464 5465 5465 5462 5458 5457 5455 5453 5452
5461 5462 5454 5456 5478 5486 5498 5495 5509 5517 5514 5521 5531 5532 5523 5511 5508 5505 5502 5499 5493 5487 5482 5478 5475 5471 5465 5461 5457 5454 5457 5456 5455 5453 5454 5453 5452 5448 5445 5442 5440 5438 5440 5441
5457 5444 5455 5451 5462 5475 5478 5497 5504 5507 5511 5518 5510 5527 5509 5502 5501 5496 5493 5491 5486 5478 5472 5469 5465 5459 5454 5448 5445 5444 5445 5446 5445 5443 5440 5438 5433 5430 5427 5426 5428 5430 5433 5434
5446 5440 5442 5437 5451 5457 5497 5486 5495 5509 5509 5512 5508 5508 5513 5505 5491 5485 5483 5480 5472 5468 5463 5456 5451 5446 5440 5435 5434 5436 5436 5438 5433 5429 5421 5420 5415 5413 5414 5414 5417 5417 5418 5415
5439 5444 5423 5455 5443 5459 5487 5490 5490 5503 5501 5499 5499 5489 5487 5479 5477 5474 5473 5471 5466 5458 5450 5441 5435 5434 5431 5428 5426 5429 5425 5421 5416 5410 5404 5402 5398 5399 5402 5404 5401 5397 5396 5393
5429 5432 5441 5402 5434 5440 5489 5489 5489 5498 5489 5490 5491 5490 5484 5479 5478 5470 5457 5453 5445 5440 5434 5428 5429 5425 5421 5419 5419 5415 5409 5403 5399 5394 5392 5391 5386 5385 5386 5380 5377 5377 5375 5370
5387 5396 5407 5375 5403 5444 5468 5477 5477 5473 5497 5487 5489 5488 5478 5475 5472 5461 5450 5442 5436 5430 5424 5420 5418 5417 5412 5405 5403 5401 5396 5387 5383 5382 5380 5375 5367 5366 5358 5358 5359 5356 5351 5346
5407 5412 5391 5347 5383 5446 5459 5470 5475 5477 5472 5473 5471 5467 5461 5452 5449 5445 5440 5434 5429 5422 5417 5412 5408 5403 5396 5392 5390 5385 5379 5372 5370 5367 5358 5349 5347 5343 5344 5343 5339 5333 5328 5323
5393 5421 5406 5415 5435 5451 5453 5462 5465 5463 5466 5467 5466 5460 5454 5446 5442 5435 5429 5423 5417 5412 5408 5400 5395 5391 5384 5379 5374 5369 5361 5358 5351 5342 5335 5334 5334 5331 5326 5322 5316 5307 5301 5297
5410 5413 5409 5423 5443 5440 5450 5458 5461 5465 5463 5461 5458 5453 5449 5444 5433 5427 5420 5414 5408 5400 5393 5384 5379 5371 5366 5360 5356 5351 5347 5340 5332 5327 5326 5324 5319 5313 5306 5297 5289 5281 5276 5269
5399 5405 5396 5405 5434 5437 5444 5448 5451 5452 5449 5447 5443 5441 5437 5431 5424 5418 5408 5400 5393 5385 5374 5368 5363 5360 5355 5351 5347 5339 5333 5325 5318 5315 5311 5305 5299 5291 5283 5274 5266 5259 5247 5238
5400 5411 5413 5416 5438 5445 5447 5440 5440 5437 5438 5435 5432 5424 5421 5419 5409 5402 5393 5387 5380 5372 5365 5360 5358 5355 5346 5338 5330 5323 5314 5307 5301 5299 5293 5286 5278 5269 5262 5257 5252 5236 5227 5214